Location: Cornospital
(48.0620°N, 3.3837°W)
Time: 20:16:09
(UTC+00:00)

SPOT 3 Rocket - Pass Details

Date: 17 June 2021
Orbit: 779 x 794 km, 98.7° (Epoch: 02 August)

Event Time Altitude Azimuth Distance (km) Brightness Sun altitude
Exits shadow 21:01:09 - 170° (S) 3,051 6.1 -6.4°
Reaches altitude 10° 21:02:57 10° 172° (S) 2,335 5.5 -6.6°
Maximum altitude 21:08:05 71° 257° (WSW) 833 3.8 -7.2°
Drops below altitude 10° 21:13:18 10° 342° (NNW) 2,362 7.3 -7.8°
Sets 21:15:39 0° 344° (NNW) 3,298 8.1 -8.1°
